Simultaneous Nadir Overpasses (SNOs) Predictions

Prediction of SNOs between GOES-17 and METOP-C Satellite Orbit:

Table of predicted SNOs for the next 14.0 days since TLE Epoch: 2/10/2024
Index Date Time (GOES-17) GOES-17 Lat,Lon METOP-C Lat,Lon Distance(km) Time Diff (sec)
1 02/10/2024 04:11:50 -0.01,-104.68 0.88,-100.75 448.27 14
2 02/11/2024 16:29:36 0.01,-104.70 0.17,-105.31 70.29 80
3 02/12/2024 16:11:37 0.01,-104.70 -0.96,-100.32 499.14 80
4 02/14/2024 04:30:39 -0.01,-104.70 -0.06,-104.92 25.63 80
5 02/16/2024 16:28:52 0.01,-104.71 -0.03,-104.49 24.86 80
6 02/18/2024 04:47:55 -0.00,-104.71 -0.98,-109.10 499.63 80
7 02/19/2024 04:24:35 -0.01,-104.72 0.11,-104.10 69.54 80
8 02/20/2024 16:43:27 0.00,-104.72 0.87,-108.67 449.64 80
9 02/21/2024 16:25:28 0.01,-104.73 -0.22,-103.67 119.94 80
10 02/23/2024 04:44:29 -0.00,-104.73 -0.82,-108.27 403.66 80
